Regional Weather Roundup
Issued by NWS

Home | Current Version | Previous Version | Graphics & Text | Print | Product List | Glossary On
Versions: 1 2 3 4 5 6 7 8 9 10 11 12 13 14 15 16 17 18 19 20 21 22 23 24 25 26 27 28 29 30 31 32 33 34 35 36 37 38 39 40 41 42 43 44 45 46 47 48 49 50
000
ASUS45 KPSR 300700
RWRAZ

ARIZONA HOURLY REGIONAL WEATHER ROUNDUP
NATIONAL WEATHER SERVICE PHOENIX AZ
1200 AM MST SAT MAY 30 2015

NOTE: FAIR INDICATES FEW OR NO CLOUDS BELOW 12,000 FEET WITH NO
SIGNIFICANT WEATHER AND/OR OBSTRUCTIONS TO VISIBILITY.

AZZ001>003-036-300800-
NORTHWEST ARIZONA

CITY           SKY/WX    TMP DP  RH WIND       PRES   REMARKS
KINGMAN        PTCLDY    68   8   9 CALM      30.03R
$$

AZZ004>008-015-016-018-300800-
NORTH CENTRAL ARIZONA

CITY           SKY/WX    TMP DP  RH WIND       PRES   REMARKS
GRAND CANYON   CLEAR     59  36  42 E7        30.26S
WILLIAMS       CLEAR     50  32  50 SE7       30.33S
PRESCOTT       CLEAR     60  33  36 SW6       30.15R
FLAGSTAFF      NOT AVBL
PAYSON         CLEAR     64  28  25 N5        30.16S
PAGE           CLEAR     69  43  38 W3        30.12S
$$

AZZ009>014-017-300800-
NORTHEAST ARIZONA

CITY           SKY/WX    TMP DP  RH WIND       PRES   REMARKS
WINSLOW        NOT AVBL
SAINT JOHNS    CLEAR     56  29  35 S3        30.20R
WINDOW ROCK    CLEAR     47  33  58 CALM      30.27S
$$

AZZ023-300800-
GREATER PHOENIX AREA

CITY           SKY/WX    TMP DP  RH WIND       PRES   REMARKS
PHOENIX        CLEAR     85  35  16 W5        29.84R
LUKE AFB       CLEAR     82  35  18 N1        29.84R
DEER VALLEY    CLEAR     75  31  19 CALM      29.87R
SCOTTSDALE     CLEAR     83  31  15 N5        29.88S
MESA-GATEWAY   CLEAR     72  43  35 SE6       29.89R
$$

AZZ027-028-300800-
SOUTHWEST MARICOPA COUNTY AND PINAL COUNTY

CITY           SKY/WX    TMP DP  RH WIND       PRES   REMARKS
CASA GRANDE    CLEAR     77  30  18 CALM      29.87S
GILA BEND      FAIR      82  37  19 SE7       29.85R
$$

AZZ503-504-507>509-300800-
SOUTHEAST ARIZONA

CITY           SKY/WX    TMP DP  RH WIND       PRES   REMARKS
TUCSON         CLEAR     80  34  19 W9        29.98R
DAVIS-MONTHAN  CLEAR     78  34  20 SW6       29.97R
NOGALES        CLEAR     66  33  29 E5        30.07S
SIERRA VISTA   CLEAR     70  25  19 W7        30.12S
SAFFORD        CLEAR     73  19  13 W8        29.96S
$$

AZZ020-021-025-026-031-300800-
SOUTHWEST ARIZONA

CITY           SKY/WX    TMP DP  RH WIND       PRES   REMARKS
YUMA           NOT AVBL
$$

CAZ031-033-041-043-047-048-061-300800-
SOUTHERN CALIFORNIA

CITY           SKY/WX    TMP DP  RH WIND       PRES   REMARKS
DOWNTOWN L.A.  CLEAR     60  56  86 CALM      29.93R
L.A. AIRPORT   FOG       57  57 100 W6        29.95R VSB 1/4
SAN DIEGO      MOCLDY    63  55  75 W5        29.95S
BURBANK        CLEAR     65  56  72 SE3       29.92S
ONTARIO        PTCLDY    64  56  75 S5        29.93S
RIVERSIDE      CLEAR     67  57  70 CALM      29.93S
PALM SPRINGS   PTCLDY    86  48  26 N8        29.85S
EL CENTRO NAS  PTCLDY    74  41  30 CALM      29.80F
IMPERIAL       PTCLDY    76  47  35 CALM      29.78S
BLYTHE         PTCLDY    86  35  16 W10       29.82S
$$

NVZ020-UTZ003-300800-
SOUTHERN NEVADA-UTAH

CITY           SKY/WX    TMP DP  RH WIND       PRES   REMARKS
LAS VEGAS      NOT AVBL
SALT LAKE CITY MOCLDY    61  41  47 S7        30.12S
$$

NMZ009-TXZ055-300800-
NEW MEXICO-WEST TEXAS

CITY           SKY/WX    TMP DP  RH WIND       PRES   REMARKS
ALBUQUERQUE    MOCLDY    63  45  51 E24G40    30.20S
EL PASO        PTCLDY    75  31  19 E9        30.01R
$$


........................KEY........................
SKY/WX - SKY CONDITION/WEATHER
TMP    - TEMPERATURE IN FAHRENHEIT
DP     - DEW POINT IN FAHRENHEIT
RH     - RELATIVE HUMIDITY IN PERCENT
WIND   - DIRECTION AND SPEED IN MILES PER HOUR (MPH)
VRB    - VARIABLE WIND DIRECTION
PRES   - MEAN SEA LEVEL PRESSURE IN INCHES OF MERCURY
         F - FALLING PRESSURE   R - RISING PRESSURE
         S - STEADY PRESSURE
VSB    - VISIBILITY IN MILES
HX     - HEAT INDEX IN FAHRENHEIT
WCI    - WIND CHILL INDEX IN FAHRENHEIT
TC     - TEMPERATURE IN CELSIUS WHICH IS ALSO KNOWN AS
         TEMPERATURE IN CENTIGRADE
AFB    - AIR FORCE BASE
         LUKE AFB IS LUKE AIR FORCE BASE
         DAVIS-MONTHAN IS DAVIS-MONTHAN AIR FORCE BASE
NAS    - NAVAL AIR STATION
         EL CENTRO NAS IS EL CENTRO NAVAL AIR STATION
N/A    - NOT AVAILABLE



USA.gov is the U.S. government's official web portal to all federal, state and local government web resources and services.